Time,TemperatureF,DewpointF,PressureIn,WindDirection,WindDirectionDegrees,WindSpeedMPH,WindSpeedGustMPH,Humidity,HourlyPrecipIn,Conditions,Clouds,dailyrainin,SoftwareType,DateUTC
2013-02-15 00:00:00,36.2,34.0,29.80,SW,221,9.0,-999.0,91,-99.99,,,0.08,weatherlink.com 1.10,2013-02-15 05:00:00,
2013-02-15 00:31:00,37.2,34.0,29.80,SW,220,13.0,-999.0,87,-99.99,,,0.09,weatherlink.com 1.10,2013-02-15 05:31:00,
2013-02-15 00:46:00,37.5,34.0,29.80,SW,214,8.0,-999.0,86,-99.99,,,0.09,weatherlink.com 1.10,2013-02-15 05:46:00,
2013-02-15 01:01:00,37.7,34.0,29.80,SW,217,13.0,-999.0,85,-99.99,,,0.09,weatherlink.com 1.10,2013-02-15 06:01:00,
2013-02-15 01:16:00,37.9,34.0,29.79,SW,215,13.0,-999.0,85,-99.99,,,0.09,weatherlink.com 1.10,2013-02-15 06:16:00,
2013-02-15 01:31:00,38.1,34.0,29.79,WSW,238,10.0,-999.0,84,-99.99,,,0.09,weatherlink.com 1.10,2013-02-15 06:31:00,
2013-02-15 01:46:00,38.4,34.0,29.79,WSW,240,7.0,-999.0,83,-99.99,,,0.09,weatherlink.com 1.10,2013-02-15 06:46:00,
2013-02-15 02:16:00,38.7,34.0,29.79,SW,220,8.0,-999.0,82,-99.99,,,0.09,weatherlink.com 1.10,2013-02-15 07:16:00,
2013-02-15 02:46:00,38.7,33.0,29.78,SW,223,6.0,-999.0,81,-99.99,,,0.09,weatherlink.com 1.10,2013-02-15 07:46:00,
2013-02-15 03:01:00,39.0,33.0,29.78,SW,225,8.0,-999.0,80,-99.99,,,0.09,weatherlink.com 1.10,2013-02-15 08:01:00,
2013-02-15 03:16:00,39.2,33.0,29.78,SSW,199,8.0,-999.0,79,-99.99,,,0.09,weatherlink.com 1.10,2013-02-15 08:16:00,
2013-02-15 03:46:00,39.1,33.0,29.78,NW,304,0.0,-999.0,80,-99.99,,,0.09,weatherlink.com 1.10,2013-02-15 08:46:00,
2013-02-15 04:31:00,38.2,34.0,29.80,West,266,1.0,-999.0,84,-99.99,,,0.09,weatherlink.com 1.10,2013-02-15 09:31:00,
2013-02-15 04:46:00,38.0,34.0,29.80,SW,233,4.0,-999.0,85,-99.99,,,0.09,weatherlink.com 1.10,2013-02-15 09:46:00,
2013-02-15 05:01:00,38.0,33.0,29.80,WSW,248,3.0,-999.0,83,-99.99,,,0.09,weatherlink.com 1.10,2013-02-15 10:01:00,
2013-02-15 05:16:00,38.3,33.0,29.80,WSW,242,0.0,-999.0,80,-99.99,,,0.09,weatherlink.com 1.10,2013-02-15 10:16:00,
2013-02-15 05:31:00,38.4,32.0,29.80,WSW,239,7.0,-999.0,77,-99.99,,,0.09,weatherlink.com 1.10,2013-02-15 10:31:00,
2013-02-15 06:01:00,38.8,29.0,29.81,WSW,258,5.0,-999.0,69,-99.99,,,0.09,weatherlink.com 1.10,2013-02-15 11:01:00,
2013-02-15 06:16:00,38.8,29.0,29.82,WNW,296,6.0,-999.0,68,-99.99,,,0.09,weatherlink.com 1.10,2013-02-15 11:16:00,
2013-02-15 06:46:00,38.6,28.0,29.83,West,276,6.0,-999.0,67,-99.99,,,0.09,weatherlink.com 1.10,2013-02-15 11:46:00,
2013-02-15 07:01:00,38.4,28.0,29.84,West,270,7.0,-999.0,66,-99.99,,,0.09,weatherlink.com 1.10,2013-02-15 12:01:00,
2013-02-15 07:16:00,38.2,28.0,29.84,WNW,285,4.0,-999.0,66,-99.99,,,0.09,weatherlink.com 1.10,2013-02-15 12:16:00,
2013-02-15 07:46:00,37.5,27.0,29.86,West,278,5.0,-999.0,66,-99.99,,,0.09,weatherlink.com 1.10,2013-02-15 12:46:00,
2013-02-15 08:01:00,37.5,27.0,29.87,WNW,298,4.0,-999.0,67,-99.99,,,0.09,weatherlink.com 1.10,2013-02-15 13:01:00,
2013-02-15 08:16:00,37.2,27.0,29.88,WNW,286,3.0,-999.0,68,-99.99,,,0.09,weatherlink.com 1.10,2013-02-15 13:16:00,
2013-02-15 08:47:00,37.5,27.0,29.89,West,261,3.0,-999.0,66,-99.99,,,0.09,weatherlink.com 1.10,2013-02-15 13:47:00,
2013-02-15 09:02:00,37.6,27.0,29.89,WSW,254,4.0,-999.0,67,-99.99,,,0.09,weatherlink.com 1.10,2013-02-15 14:02:00,
2013-02-15 09:17:00,37.4,27.0,29.89,West,263,4.0,-999.0,66,-99.99,,,0.09,weatherlink.com 1.10,2013-02-15 14:17:00,
2013-02-15 09:32:00,37.5,26.0,29.90,WSW,245,1.0,-999.0,64,-99.99,,,0.09,weatherlink.com 1.10,2013-02-15 14:32:00,
2013-02-15 09:47:00,37.6,27.0,29.90,West,274,3.0,-999.0,65,-99.99,,,0.09,weatherlink.com 1.10,2013-02-15 14:47:00,
2013-02-15 10:02:00,37.9,27.0,29.91,SSW,194,9.0,-999.0,65,-99.99,,,0.09,weatherlink.com 1.10,2013-02-15 15:02:00,
2013-02-15 10:17:00,38.0,27.0,29.91,West,277,6.0,-999.0,64,-99.99,,,0.09,weatherlink.com 1.10,2013-02-15 15:17:00,
2013-02-15 10:47:00,37.8,27.0,29.92,West,270,5.0,-999.0,65,-99.99,,,0.09,weatherlink.com 1.10,2013-02-15 15:47:00,
2013-02-15 11:02:00,37.9,27.0,29.92,West,274,12.0,-999.0,65,-99.99,,,0.09,weatherlink.com 1.10,2013-02-15 16:02:00,
2013-02-15 11:17:00,38.0,27.0,29.92,West,262,7.0,-999.0,65,-99.99,,,0.09,weatherlink.com 1.10,2013-02-15 16:17:00,
2013-02-15 11:32:00,37.7,26.0,29.92,West,275,6.0,-999.0,64,-99.99,,,0.09,weatherlink.com 1.10,2013-02-15 16:32:00,
2013-02-15 11:48:00,37.8,27.0,29.92,West,272,6.0,-999.0,65,-99.99,,,0.09,weatherlink.com 1.10,2013-02-15 16:48:00,
2013-02-15 12:03:00,38.4,27.0,29.92,West,281,8.0,-999.0,63,-99.99,,,0.09,weatherlink.com 1.10,2013-02-15 17:03:00,
2013-02-15 12:18:00,38.8,27.0,29.92,WNW,301,4.0,-999.0,64,-99.99,,,0.09,weatherlink.com 1.10,2013-02-15 17:18:00,
2013-02-15 12:33:00,38.1,28.0,29.92,WNW,298,4.0,-999.0,66,-99.99,,,0.09,weatherlink.com 1.10,2013-02-15 17:33:00,
2013-02-15 12:48:00,38.0,28.0,29.92,West,267,6.0,-999.0,67,-99.99,,,0.09,weatherlink.com 1.10,2013-02-15 17:48:00,
2013-02-15 13:18:00,38.8,29.0,29.92,NNE,26,1.0,-999.0,67,-99.99,,,0.09,weatherlink.com 1.10,2013-02-15 18:18:00,
2013-02-15 13:33:00,39.3,28.0,29.92,West,278,5.0,-999.0,65,-99.99,,,0.09,weatherlink.com 1.10,2013-02-15 18:33:00,
2013-02-15 13:48:00,39.3,29.0,29.92,WNW,286,4.0,-999.0,66,-99.99,,,0.09,weatherlink.com 1.10,2013-02-15 18:48:00,
2013-02-15 14:03:00,38.8,28.0,29.92,West,262,5.0,-999.0,65,-99.99,,,0.00,weatherlink.com 1.10,2013-02-15 19:03:00,
2013-02-15 14:18:00,39.1,27.0,29.92,NW,309,11.0,-999.0,63,-99.99,,,0.00,weatherlink.com 1.10,2013-02-15 19:18:00,
2013-02-15 14:48:00,37.4,27.0,29.93,North,355,7.0,-999.0,65,-99.99,,,0.00,weatherlink.com 1.10,2013-02-15 19:48:00,
2013-02-15 15:03:00,37.0,27.0,29.93,North,355,3.0,-999.0,66,-99.99,,,0.00,weatherlink.com 1.10,2013-02-15 20:03:00,
2013-02-15 15:18:00,36.8,26.0,29.94,West,281,0.0,-999.0,66,-99.99,,,0.00,weatherlink.com 1.10,2013-02-15 20:18:00,
2013-02-15 15:33:00,36.6,26.0,29.94,West,269,2.0,-999.0,65,-99.99,,,0.00,weatherlink.com 1.10,2013-02-15 20:33:00,
2013-02-15 15:48:00,36.7,26.0,29.94,NW,315,0.0,-999.0,65,-99.99,,,0.00,weatherlink.com 1.10,2013-02-15 20:48:00,
2013-02-15 16:03:00,36.6,26.0,29.94,West,271,3.0,-999.0,65,-99.99,,,0.00,weatherlink.com 1.10,2013-02-15 21:03:00,
2013-02-15 16:18:00,36.5,26.0,29.95,West,276,5.0,-999.0,65,-99.99,,,0.00,weatherlink.com 1.10,2013-02-15 21:18:00,
2013-02-15 16:33:00,36.1,25.0,29.95,West,281,5.0,-999.0,64,-99.99,,,0.00,weatherlink.com 1.10,2013-02-15 21:33:00,
2013-02-15 16:48:00,35.8,25.0,29.96,WNW,294,5.0,-999.0,64,-99.99,,,0.00,weatherlink.com 1.10,2013-02-15 21:48:00,
2013-02-15 17:03:00,35.6,25.0,29.96,North,351,0.0,-999.0,65,-99.99,,,0.00,weatherlink.com 1.10,2013-02-15 22:03:00,
2013-02-15 17:18:00,35.6,25.0,29.96,NNW,335,1.0,-999.0,65,-99.99,,,0.00,weatherlink.com 1.10,2013-02-15 22:18:00,
2013-02-15 17:33:00,35.4,25.0,29.97,NNW,348,2.0,-999.0,65,-99.99,,,0.00,weatherlink.com 1.10,2013-02-15 22:33:00,
2013-02-15 18:03:00,35.2,23.0,29.97,NNE,15,0.0,-999.0,62,-99.99,,,0.00,weatherlink.com 1.10,2013-02-15 23:03:00,
2013-02-15 18:18:00,34.9,23.0,29.98,NNE,15,0.0,-999.0,61,-99.99,,,0.00,weatherlink.com 1.10,2013-02-15 23:18:00,
2013-02-15 18:34:00,34.5,23.0,29.98,North,355,0.0,-999.0,63,-99.99,,,0.00,weatherlink.com 1.10,2013-02-15 23:34:00,
2013-02-15 18:49:00,34.3,22.0,29.98,North,355,0.0,-999.0,62,-99.99,,,0.00,weatherlink.com 1.10,2013-02-15 23:49:00,
2013-02-15 19:03:00,34.2,22.0,29.99,NE,52,4.0,-999.0,61,-99.99,,,0.00,weatherlink.com 1.10,2013-02-16 00:03:00,
2013-02-15 19:18:00,33.8,22.0,30.00,NNW,340,1.0,-999.0,62,-99.99,,,0.00,weatherlink.com 1.10,2013-02-16 00:18:00,
2013-02-15 19:33:00,33.5,21.0,30.00,NNE,14,3.0,-999.0,61,-99.99,,,0.00,weatherlink.com 1.10,2013-02-16 00:33:00,
2013-02-15 19:48:00,33.2,21.0,30.00,NW,311,0.0,-999.0,62,-99.99,,,0.00,weatherlink.com 1.10,2013-02-16 00:48:00,
2013-02-15 20:03:00,33.0,21.0,30.00,NW,311,2.0,-999.0,61,-99.99,,,0.00,weatherlink.com 1.10,2013-02-16 01:03:00,
2013-02-15 20:18:00,32.7,21.0,30.00,WNW,298,6.0,-999.0,62,-99.99,,,0.00,weatherlink.com 1.10,2013-02-16 01:18:00,
2013-02-15 20:33:00,32.3,21.0,30.00,NW,314,0.0,-999.0,64,-99.99,,,0.00,weatherlink.com 1.10,2013-02-16 01:33:00,
2013-02-15 20:48:00,32.0,21.0,30.01,NW,309,5.0,-999.0,64,-99.99,,,0.00,weatherlink.com 1.10,2013-02-16 01:48:00,
2013-02-15 21:03:00,31.5,21.0,30.01,WNW,292,3.0,-999.0,65,-99.99,,,0.00,weatherlink.com 1.10,2013-02-16 02:03:00,
2013-02-15 21:18:00,31.4,22.0,30.02,NNE,19,4.0,-999.0,67,-99.99,,,0.00,weatherlink.com 1.10,2013-02-16 02:18:00,
2013-02-15 21:33:00,31.0,22.0,30.01,NNW,347,0.0,-999.0,69,-99.99,,,0.00,weatherlink.com 1.10,2013-02-16 02:33:00,
2013-02-15 21:48:00,30.4,22.0,30.01,North,350,0.0,-999.0,70,-99.99,,,0.00,weatherlink.com 1.10,2013-02-16 02:48:00,
2013-02-15 22:03:00,29.7,22.0,30.01,NNW,346,3.0,-999.0,73,-99.99,,,0.00,weatherlink.com 1.10,2013-02-16 03:03:00,
2013-02-15 22:18:00,29.0,23.0,30.01,NW,315,0.0,-999.0,77,-99.99,,,0.00,weatherlink.com 1.10,2013-02-16 03:18:00,
2013-02-15 22:33:00,28.4,23.0,30.02,WNW,301,0.0,-999.0,79,-99.99,,,0.00,weatherlink.com 1.10,2013-02-16 03:33:00,
2013-02-15 22:48:00,27.9,23.0,30.02,NW,314,1.0,-999.0,80,-99.99,,,0.00,weatherlink.com 1.10,2013-02-16 03:48:00,
2013-02-15 23:04:00,27.4,22.0,30.02,NNW,332,0.0,-999.0,81,-99.99,,,0.00,weatherlink.com 1.10,2013-02-16 04:04:00,
2013-02-15 23:19:00,27.0,22.0,30.03,NW,322,1.0,-999.0,81,-99.99,,,0.00,weatherlink.com 1.10,2013-02-16 04:19:00,
2013-02-15 23:34:00,26.9,22.0,30.02,North,11,3.0,-999.0,80,-99.99,,,0.00,weatherlink.com 1.10,2013-02-16 04:34:00,